Regional Weather Roundup
Issued by NWS

Home | Current Version | Previous Version | Graphics & Text | Print | Product List | Glossary Off
Versions: 1 2 3 4 5 6 7 8 9 10 11 12 13 14 15 16 17 18 19 20 21 22 23 24 25 26 27 28 29 30 31 32 33 34 35 36 37 38 39 40 41 42 43 44 45 46 47 48 49 50

000
ASUS43 KMPX 191601
RWRMN
WEATHER ROUNDUP FOR MINNESOTA
NATIONAL WEATHER SERVICE TWIN CITIES/CHANHASSEN MN
1100 AM CDT SAT APR 19 2014


NOTE: "FAIR" INDICATES FEW OR NO CLOUDS BELOW 12,000 FEET WITH NO
SIGNIFICANT WEATHER AND/OR OBSTRUCTIONS TO VISIBILITY. N/A MEANS
CURRENT SKY AND/OR WEATHER CONDITIONS ARE NOT AVAILABLE.

MNZ060>063-068>070-191700-
   Twin Cities Metro

CITY           SKY/WX    TMP DP  RH WIND       PRES   REMARKS
TWIN CITIES    CLOUDY    50  34  54 SE18      30.09F
ST PAUL        CLOUDY    50  32  50 SE18G26   30.10F
CRYSTAL        CLOUDY    51  33  50 S18G30    30.06F
BLAINE         CLOUDY    50  34  53 SE15G21   30.06F
EDEN PRAIRIE   CLOUDY    53  35  50 S20       30.06F
LAKEVILLE      CLOUDY    48  36  61 S20       30.08F
SOUTH ST PAUL  CLOUDY    53  33  46 SE10G20   30.09F
LAKE ELMO      CLOUDY    50  32  50 S17G26    30.11F
$$
MNZ001>005-007-008-013>017-022>024-027-028-191700-
   Northwest Minnesota

CITY           SKY/WX    TMP DP  RH WIND       PRES   REMARKS
BEMIDJI        PTSUNNY   50  39  65 S14G20    29.85S
HALLOCK        CLOUDY    52  43  71 SW17      29.74S
ROSEAU         MOSUNNY   52  43  71 S20G25    29.74S
WARROAD        MOSUNNY   48  43  81 S17G23    29.75F
THIEF RVR FALL SUNNY     54  41  62 SW20      29.80R
CROOKSTON      SUNNY     55  39  54 W17       29.82R
FOSSTON        PTSUNNY   55  43  62 S22G30    29.83R
DETROIT LAKES  PTSUNNY   54  43  66 SW17G23   29.88R
MOORHEAD       MOSUNNY   55  43  62 W13       29.88R
PARK RAPIDS    CLOUDY    50  40  68 S23G30    29.88R
$$
MNZ006-009>011-018-025>026-191700-
   North Central Minnesota

CITY           SKY/WX    TMP DP  RH WIND       PRES   REMARKS
BAUDETTE       CLOUDY    43  36  76 S12G20    29.81F
FLAG ISLAND    CLOUDY    36  32  87 SE17      29.76F
INTL FALLS     CLOUDY    38  31  76 SE15G24   29.90F
WASKISH        CLOUDY    46  37  71 SE8G21    29.84S
BIG FORK       CLOUDY    43  34  70 S17G28    29.91F
LONGVILLE      CLOUDY    46  37  71 S22G32    29.91F
GRAND RAPIDS   CLOUDY    41  34  75 SE16G24   29.95F
CRANE LAKE     LGT RAIN  34  34 100 SE6       30.01F WCI  29
ORR            CLOUDY    36  28  75 SE17G23   29.95S
COOK           CLOUDY    36  30  80 SE12G23   30.00F
$$
MNZ012-019>021-037-191700-
   Northeast Minnesota

CITY           SKY/WX    TMP DP  RH WIND       PRES   REMARKS
DULUTH         CLOUDY    35  31  85 E16       30.05F WCI  25
ELY            CLOUDY    34  30  86 SE13G20   30.05R WCI  25
HIBBING        CLOUDY    37  32  82 SE13      30.00F
EVELETH        CLOUDY    34  32  93 SE15G22   30.03F WCI  24
DULUTH HARBOR  CLOUDY    34  30  86 E18       30.11F WCI  23
TWO HARBORS    CLOUDY    30  27  86 E10G17    30.10F WCI  21
SILVER BAY     CLOUDY    30  30 100 NE10      30.14F WCI  21
GRAND MARAIS     N/A     32  30  92 E17G28    30.24F WCI  21
G MARAIS ARPRT LGT SNOW  27  23  86 E12G24    30.17F WCI  16
$$
MNZ029>031-032-039>041-046>048-054>057-064-191700-
   West Central Minnesota

CITY           SKY/WX    TMP DP  RH WIND       PRES   REMARKS
FERGUS FALLS   CLOUDY    55  43  62 SW13      29.87R
WHEATON        CLOUDY    61  43  51 NW10      29.93R
MORRIS         CLOUDY    55  45  67 S15       29.91R
ALEXANDRIA     CLOUDY    50  42  74 S17G23    29.93R
ELBOW LAKE     PTSUNNY   55  45  68 S17       29.90R
WADENA         CLOUDY    50  41  71 S17G28    29.89S
GLENWOOD       CLOUDY    52  43  71 S20G28    29.93S
APPLETON       CLOUDY    59  45  58 S13       29.93R
BENSON         CLOUDY    55  45  67 SW17      29.93R
ORTONVILLE     CLOUDY    55  43  62 NW7       29.93R
MADISON        CLOUDY    63  46  55 SW9       29.93R
WILLMAR        FAIR      54  41  62 S12G20    29.97F
$$
MNZ033>034-036-042>043-049>051-058-059-191700-
   Central Minnesota

CITY           SKY/WX    TMP DP  RH WIND       PRES   REMARKS
ST CLOUD       MOSUNNY   48  36  63 S20G25    30.00S
SAUK CENTRE    FAIR      47  40  77 S18G25    29.95R
PAYNESVILLE    PTSUNNY   48  38  68 SE15G21   29.97F
AITKIN         CLOUDY    46  34  61 S16G24    29.96R
PINE RIVER     CLOUDY    48  39  71 S20G28    29.96S
BRAINERD       CLOUDY    52  36  54 S22G28    29.96R
STAPLES        CLOUDY    48  39  71 S20G29    29.92S
LONG PRAIRIE   FAIR      46  41  81 SE21G28   29.95R
LITTLE FALLS   LGT RAIN  46  36  66 S10G20    29.98R
LITCHFIELD     MOSUNNY   52  39  62 S10G20    30.00S
BUFFALO        CLOUDY    49  36  59 SE8G17    30.04S
MAPLE LAKE     CLOUDY    49  39  67 S15G23    30.03S
$$
MNZ037-044-045-052-053-191700-
   East Central Minnesota

CITY           SKY/WX    TMP DP  RH WIND       PRES   REMARKS
PRINCETON      CLOUDY    46  34  61 SE10G22   30.03S
MORA           CLOUDY    43  30  61 S13G18    30.05F
CAMBRIDGE      PTSUNNY   46  32  57 SE13G20   30.03F
RUSH CITY      CLOUDY    43  30  60 S13G26    30.06F
MOOSE LAKE     MOSUNNY   45  28  53 S16G24    30.02F
HINCKLEY       CLOUDY    43  30  61 S13G20    30.05F
CLOQUET        PTSUNNY   43  25  49 SE9G21    30.03F
MCGREGOR       PTSUNNY   45  32  61 S20G26    30.00R
$$
MNZ071>073-080-081-089-090-097-098-191700-
   Southwest Minnesota

CITY           SKY/WX    TMP DP  RH WIND       PRES   REMARKS
MONTEVIDEO     CLOUDY    54  46  76 SW13      29.94F
GRANITE FALLS  LGT RAIN  56  46  69 S14       29.97F
CANBY          CLOUDY    60  46  59 SW13      29.95R
MARSHALL       CLOUDY    61  45  55 SW16G30   29.95F
REDWOOD FALLS  PTSUNNY   63  45  51 S16G28    29.98S
OLIVIA         CLOUDY    55  41  58 S15G21    29.97F
PIPESTONE      MOSUNNY   61  43  51 SW22      29.96S
WINDOM         MOSUNNY   64  41  42 S26G36    29.98S
WORTHINGTON    MOSUNNY   64  41  42 SW26G35   30.01R
JACKSON        SUNNY     64  37  36 S29G39    30.01S
TRACY          PTSUNNY   64  46  50 SW20G26   29.98R
SLAYTON        MOSUNNY   62  43  49 SW31G37   29.98S
$$
MNZ065>067-074>077-082>085-091>093-191700-
   South Central Minnesota

CITY           SKY/WX    TMP DP  RH WIND       PRES   REMARKS
MANKATO        PTSUNNY   54  37  54 S21G29    30.05F
NEW ULM        MOSUNNY   57  41  54 S21G32    30.02R
ST JAMES       MOSUNNY   63  39  42 S28G35    30.02S
FAIRMONT       MOSUNNY   61  37  41 S29G38    30.03F
GLENCOE        CLOUDY    53  37  55 S14G23    30.03S
FARIBAULT      PTSUNNY   57  34  41 S16G22    30.10R
OWATONNA       PTSUNNY   54  36  50 SE30      30.08F
WASECA         PTSUNNY   54  39  58 SE21G32   30.08F
ALBERT LEA     PTSUNNY   54  37  54 S18G28    30.10F
$$
MNZ078>079-086>088-094>096-191700-
   Southeast Minnesota

CITY           SKY/WX    TMP DP  RH WIND       PRES   REMARKS
ROCHESTER      PTSUNNY   51  33  50 S24G32    30.15F
RED WING       PTSUNNY   54  30  40 S12G22    30.14S
STANTON        PTSUNNY   53  36  51 S20G25    30.10S
DODGE CENTER   PTSUNNY   54  34  47 S24G33    30.13F
WINONA         PTSUNNY   54  28  37 S12G17    30.20F
AUSTIN         PTSUNNY   52  34  50 S16G25    30.13S
PRESTON        MOSUNNY   51  31  46 SE21G30   30.18F
$$
ABBREVIATIONS USED IN REMARKS
   TC - TEMPERATURES IN CELSIUS
  WCI - WIND CHILL INDEX
   HX - HEAT INDEX
  VSB - VISIBILITY
$$



USA.gov is the U.S. government's official web portal to all federal, state and local government web resources and services.